DW1347 Weather Reports


time (UTC)temp
C
wind
direction
speed
KPH
gust
KPH
rain 1hr
cm
rain 24hr
cm
rain mn
cm
humidity
%
barometer
mb
20260502191032 14 212 4.8 4.8 0.00 0.00 0.00 29 1027.9
20260502190530 15 333 12.9 20.9 0.00 0.00 0.00 30 1027.9
20260502190026 13 322 8.0 9.7 0.00 0.00 0.00 29 1027.9
20260502185521 14 136 8.0 9.7 0.00 0.00 0.00 27 1028.1
20260502185018 13 42 9.7 11.3 0.00 0.00 0.00 28 1028.1
20260502184514 14 135 6.4 8.0 0.00 0.00 0.00 25 1028.0
20260502184010 13 299 4.8 8.0 0.00 0.00 0.00 25 1028.1
20260502183501 13 231 8.0 9.7 0.00 0.00 0.00 25 1028.3
20260502182956 13 277 4.8 4.8 0.00 0.00 0.00 24 1028.6
20260502182452 13 141 4.8 4.8 0.00 0.00 0.00 25 1028.3
20260502181948 13 281 9.7 11.3 0.00 0.00 0.00 25 1028.5
20260502181446 14 5 4.8 4.8 0.00 0.00 0.00 24 1028.6
20260502180945 14 321 4.8 8.0 0.00 0.00 0.00 26 1028.5
20260502180442 13 172 3.2 3.2 0.00 0.00 0.00 26 1028.6
20260502170401 12 158 3.2 4.8 0.00 0.00 0.00 28 1029.3
20260502164347 11 34 4.8 4.8 0.00 0.00 0.00 32 1029.1
20260502163843 11 292 4.8 8.0 0.00 0.00 0.00 31 1029.3
20260502163340 11 17 6.4 8.0 0.00 0.00 0.00 30 1029.4
20260502162838 11 12 12.9 14.5 0.00 0.00 0.00 30 1029.1
20260502162334 10 164 4.8 8.0 0.00 0.00 0.00 31 1029.3
20260502161831 10 25 6.4 8.0 0.00 0.00 0.00 32 1029.1
20260502161327 10 284 8.0 9.7 0.00 0.00 0.00 33 1029.1
20260502160825 11 174 0.0 0.0 0.00 0.00 0.00 31 1029.1
20260502160324 10 176 3.2 3.2 0.00 0.00 0.00 34 1029.4
20260502152259 9 114 4.8 8.0 0.00 0.00 0.00 32 1029.5
20260502151756 8 165 0.0 1.6 0.00 0.00 0.00 33 1030.0
20260502151253 8 204 1.6 1.6 0.00 0.00 0.00 34 1029.8
20260502150751 8 37 1.6 3.2 0.00 0.00 0.00 33 1029.8
20260502150247 8 19 9.7 11.3 0.00 0.00 0.00 32 1029.5
20260502130636 1 194 0.0 0.0 0.00 0.00 0.00 66 1029.9
20260502130133 0 197 0.0 0.0 0.00 0.00 0.00 72 1029.7
20260502123620 -2 210 0.0 0.0 0.00 0.00 0.00 81 1029.7
20260502123115 -3 206 0.0 0.0 0.00 0.00 0.00 79 1029.5
20260502122612 -3 222 0.0 0.0 0.00 0.00 0.00 79 1029.4
20260502122109 -3 207 0.0 1.6 0.00 0.00 0.00 79 1029.5
20260502121607 -3 201 0.0 1.6 0.00 0.00 0.00 79 1029.3
20260502121105 -3 216 0.0 0.0 0.00 0.00 0.00 79 1029.3
20260502120600 -3 197 0.0 0.0 0.00 0.00 0.00 81 1029.5
20260502115556 -3 212 0.0 0.0 0.00 0.00 0.00 79 1029.4
20260502115051 -3 203 0.0 1.6 0.00 0.00 0.00 79 1029.3
20260502114548 -3 210 0.0 0.0 0.00 0.00 0.00 80 1029.3
20260502114044 -3 210 0.0 0.0 0.00 0.00 0.00 81 1029.3
20260502113542 -3 196 1.6 1.6 0.00 0.00 0.00 81 1029.1
20260502113041 -3 201 0.0 0.0 0.00 0.00 0.00 81 1029.1
20260502112538 -3 218 0.0 0.0 0.00 0.00 0.00 80 1029.5
20260502112036 -3 215 0.0 0.0 0.00 0.00 0.00 81 1029.3
20260502111532 -3 187 1.6 1.6 0.00 0.00 0.00 80 1029.3
20260502111030 -3 212 0.0 0.0 0.00 0.00 0.00 80 1029.1
20260502110527 -3 207 0.0 0.0 0.00 0.00 0.00 81 1029.1
20260502110025 -3 222 0.0 0.0 0.00 0.00 0.00 80 1029.5
20260502105522 -3 186 1.6 1.6 0.00 0.00 0.00 80 1029.1
20260502105020 -3 209 0.0 0.0 0.00 0.00 0.00 79 1029.3
20260502104516 -2 245 0.0 0.0 0.00 0.00 0.00 78 1029.3
20260502104014 -3 212 0.0 0.0 0.00 0.00 0.00 79 1029.1
20260502103511 -2 225 0.0 0.0 0.00 0.00 0.00 78 1029.3
20260502103010 -2 203 0.0 1.6 0.00 0.00 0.00 81 1029.1
20260502102505 -2 211 0.0 0.0 0.00 0.00 0.00 81 1029.1
20260502102003 -2 222 0.0 0.0 0.00 0.00 0.00 78 1029.1
20260502101500 -2 197 0.0 0.0 0.00 0.00 0.00 76 1029.4
20260502100959 -2 175 3.2 3.2 0.00 0.00 0.00 77 1029.4
20260502100457 -2 177 1.6 3.2 0.00 0.00 0.00 77 1029.3
20260502091431 -2 196 1.6 1.6 0.00 0.00 0.00 80 1029.1
20260502090928 -2 208 0.0 1.6 0.00 0.00 0.00 80 1029.0
20260502090425 -2 199 0.0 1.6 0.00 0.00 0.00 81 1028.9
20260502071308 -2 200 0.0 1.6 0.00 0.00 0.00 81 1029.3
20260502070807 -1 218 0.0 0.0 0.00 0.00 0.00 80 1029.4
20260502070304 -1 193 1.6 1.6 0.00 0.00 0.00 80 1029.8
20260502065803 -1 180 1.6 1.6 0.00 0.00 0.00 80 1029.8
20260502065300 -1 191 1.6 1.6 0.00 0.00 0.00 81 1029.7
20260502064758 -1 185 1.6 1.6 0.00 0.00 0.00 82 1029.8
20260502064255 -2 191 1.6 1.6 0.00 0.00 0.00 82 1029.7
20260502063753 -1 201 0.0 1.6 0.00 0.00 0.00 83 1029.9
20260502063251 -2 209 0.0 0.0 0.00 0.00 0.00 83 1029.7
20260502062748 -2 174 1.6 3.2 0.00 0.00 0.00 82 1029.8
20260502062245 -1 203 0.0 0.0 0.00 0.00 0.00 81 1029.8
20260502061744 -2 204 0.0 0.0 0.00 0.00 0.00 81 1029.7
20260502061241 -2 206 0.0 0.0 0.00 0.00 0.00 81 1029.7
20260502060736 -2 209 0.0 0.0 0.00 0.00 0.00 81 1029.8
20260502060226 -2 189 1.6 1.6 0.00 0.00 0.00 82 1029.7
20260502055725 -1 214 0.0 0.0 0.00 0.13 0.13 81 1029.7
20260502055222 -1 208 0.0 0.0 0.00 0.13 0.13 81 1029.8
20260502054721 -1 196 1.6 1.6 0.00 0.13 0.13 82 1029.7
20260502054218 -1 211 0.0 0.0 0.00 0.13 0.13 82 1029.9
20260502053715 -1 193 1.6 1.6 0.00 0.13 0.13 81 1029.7
20260502053212 -1 209 0.0 0.0 0.00 0.13 0.13 83 1029.5
20260502052710 -1 217 0.0 0.0 0.00 0.13 0.13 81 1029.8
20260502052208 -1 225 0.0 0.0 0.00 0.13 0.13 80 1029.7
20260502051701 -1 201 1.6 1.6 0.00 0.13 0.13 80 1029.8
20260502051159 -1 218 0.0 0.0 0.00 0.13 0.13 81 1029.5
20260502050655 -1 208 1.6 1.6 0.00 0.13 0.13 81 1029.7
20260502050151 -1 214 0.0 0.0 0.00 0.13 0.13 80 1029.7
20260502045647 -1 192 0.0 0.0 0.00 0.13 0.13 78 1029.7
20260502045145 -1 207 0.0 1.6 0.00 0.13 0.13 79 1029.5
20260502044641 -1 203 1.6 1.6 0.00 0.13 0.13 79 1029.5
20260502044138 -1 215 0.0 0.0 0.00 0.13 0.13 77 1029.4
20260502043635 -1 186 1.6 1.6 0.00 0.13 0.13 77 1029.4
20260502043127 -1 207 0.0 1.6 0.00 0.13 0.13 77 1029.5
20260502042626 -1 207 0.0 1.6 0.00 0.13 0.13 78 1029.5
20260502042124 -1 211 0.0 0.0 0.00 0.13 0.13 78 1029.3
20260502041621 -1 217 0.0 0.0 0.00 0.13 0.13 78 1029.4
20260502041118 -1 211 0.0 0.0 0.00 0.13 0.13 77 1029.5
20260502040615 -1 197 0.0 1.6 0.00 0.13 0.13 77 1029.4
20260502040113 0 211 0.0 0.0 0.00 0.13 0.13 77 1029.4
20260502035608 0 205 0.0 0.0 0.00 0.13 0.13 76 1029.3
20260502035105 0 218 0.0 0.0 0.00 0.13 0.13 75 1029.0
20260502034603 0 209 0.0 0.0 0.00 0.13 0.13 75 1029.0
20260502034101 0 196 1.6 1.6 0.00 0.13 0.13 74 1028.8
20260502033559 0 218 0.0 0.0 0.00 0.13 0.13 74 1028.9
20260502033056 0 214 0.0 0.0 0.00 0.13 0.13 73 1028.5
20260502032552 0 210 0.0 0.0 0.00 0.13 0.13 72 1028.5
20260502032049 0 176 1.6 1.6 0.00 0.13 0.13 76 1028.6
20260502031547 0 204 0.0 0.0 0.00 0.13 0.13 70 1028.5
20260502031044 0 214 0.0 0.0 0.00 0.13 0.13 69 1028.6
20260502030544 0 206 0.0 1.6 0.00 0.13 0.13 69 1028.4
20260502030041 1 193 1.6 1.6 0.00 0.13 0.13 67 1028.1
20260502025538 1 196 0.0 1.6 0.00 0.13 0.13 68 1028.1
20260502025036 1 201 1.6 1.6 0.00 0.13 0.13 66 1028.3
20260502024533 1 200 0.0 0.0 0.00 0.13 0.13 65 1027.9
20260502024032 2 207 0.0 0.0 0.00 0.13 0.13 64 1028.0
20260502023529 2 188 1.6 1.6 0.00 0.13 0.13 63 1027.9
20260502023026 2 185 0.0 1.6 0.00 0.13 0.13 61 1027.9
20260502022522 2 183 1.6 1.6 0.00 0.13 0.13 61 1027.8
20260502022020 2 192 1.6 1.6 0.00 0.13 0.13 60 1027.8
20260502021517 3 201 0.0 0.0 0.00 0.13 0.13 58 1027.6
20260502021014 3 250 0.0 1.6 0.00 0.13 0.13 58 1027.8
20260502020512 3 199 0.0 0.0 0.00 0.13 0.13 58 1027.9
20260502020008 3 210 0.0 0.0 0.00 0.13 0.13 58 1027.5
20260502015506 4 220 0.0 0.0 0.00 0.13 0.13 60 1027.8
20260502015002 5 221 0.0 0.0 0.00 0.13 0.13 57 1027.5
20260502014459 5 219 0.0 0.0 0.00 0.13 0.13 51 1027.4
20260502013956 6 220 0.0 0.0 0.00 0.13 0.13 49 1027.5
20260502013451 6 223 0.0 0.0 0.00 0.13 0.13 45 1027.4
20260502012948 7 273 3.2 3.2 0.00 0.13 0.13 43 1027.4
20260502012446 7 250 1.6 1.6 0.00 0.13 0.13 41 1027.4
20260502011943 7 225 0.0 0.0 0.00 0.13 0.13 44 1027.3
20260502011439 7 238 0.0 1.6 0.00 0.13 0.13 44 1027.0
20260502010936 7 312 1.6 1.6 0.00 0.13 0.13 40 1027.0
20260502010433 7 245 1.6 1.6 0.00 0.13 0.13 39 1027.3
20260502005929 7 224 1.6 1.6 0.00 0.13 0.13 38 1027.1
20260502005427 8 320 4.8 4.8 0.00 0.13 0.13 38 1026.8
20260502004925 8 241 4.8 4.8 0.00 0.13 0.13 38 1026.8
20260502004421 8 161 6.4 9.7 0.00 0.13 0.13 38 1026.9
20260502003918 8 214 3.2 4.8 0.00 0.13 0.13 36 1027.0
20260502003415 8 21 9.7 11.3 0.00 0.13 0.13 37 1027.0
20260502002911 8 184 4.8 4.8 0.00 0.13 0.13 35 1026.8
20260502002409 8 107 3.2 3.2 0.00 0.13 0.13 37 1026.8
20260502001906 8 170 4.8 4.8 0.00 0.13 0.13 37 1026.8
20260502001403 9 248 1.6 3.2 0.00 0.13 0.13 37 1026.9
20260502000901 8 251 6.4 9.7 0.00 0.13 0.13 36 1027.0
20260502000402 8 221 0.0 0.0 0.00 0.13 0.13 37 1026.9
20260501235855 8 222 0.0 1.6 0.00 0.13 0.13 38 1026.8
20260501235351 8 58 6.4 8.0 0.00 0.13 0.13 37 1026.8
20260501234846 8 209 0.0 0.0 0.00 0.13 0.13 38 1026.5
20260501234344 8 287 3.2 4.8 0.00 0.13 0.13 36 1026.6
20260501233842 8 92 1.6 3.2 0.00 0.13 0.13 39 1026.6
20260501233339 8 135 6.4 8.0 0.00 0.13 0.13 37 1026.5
20260501232835 8 273 3.2 3.2 0.00 0.13 0.13 38 1026.4
20260501232332 8 224 1.6 1.6 0.00 0.13 0.13 41 1026.6
20260501231830 10 261 6.4 8.0 0.00 0.13 0.13 36 1026.2
20260501231327 10 322 3.2 8.0 0.00 0.13 0.13 36 1026.2
20260501230826 9 138 11.3 11.3 0.00 0.13 0.13 36 1026.4
20260501230324 10 256 6.4 8.0 0.00 0.13 0.13 36 1026.1
20260501225821 10 331 12.9 17.7 0.00 0.13 0.13 35 1026.5
20260501225319 10 230 0.0 0.0 0.00 0.13 0.13 36 1026.1
20260501224815 8 224 1.6 1.6 0.00 0.13 0.13 38 1026.2
20260501224312 10 244 0.0 0.0 0.00 0.13 0.13 38 1026.1
20260501223809 8 225 1.6 1.6 0.00 0.13 0.13 38 1026.4
20260501223305 9 352 6.4 9.7 0.00 0.13 0.13 39 1026.1
20260501222801 8 233 1.6 3.2 0.00 0.13 0.13 40 1026.1
20260501222258 8 115 8.0 12.9 0.00 0.13 0.13 39 1026.1
20260501221749 10 46 4.8 8.0 0.00 0.13 0.13 40 1026.1
20260501221246 9 334 6.4 8.0 0.00 0.13 0.13 40 1026.4
20260501220744 8 226 1.6 1.6 0.00 0.13 0.13 43 1026.0
20260501220240 8 182 3.2 3.2 0.00 0.13 0.13 42 1026.2
20260501215732 11 282 1.6 3.2 0.00 0.13 0.13 39 1026.1
20260501215227 10 226 1.6 1.6 0.00 0.13 0.13 42 1026.1
20260501214723 10 353 9.7 12.9 0.00 0.13 0.13 40 1026.0
20260501214219 8 54 8.0 9.7 0.00 0.13 0.13 42 1026.1
20260501213716 8 183 4.8 4.8 0.00 0.13 0.13 43 1026.2
20260501213212 8 75 3.2 3.2 0.00 0.13 0.13 44 1026.8
20260501212708 8 26 8.0 12.9 0.00 0.13 0.13 45 1026.5
20260501212205 8 157 4.8 8.0 0.00 0.13 0.13 44 1026.5
20260501211702 8 192 1.6 3.2 0.00 0.13 0.13 46 1026.5
20260501211159 9 15 3.2 4.8 0.00 0.13 0.13 46 1026.6
20260501210656 8 67 4.8 4.8 0.00 0.13 0.13 45 1026.8
20260501210152 9 21 8.0 11.3 0.00 0.13 0.13 44 1026.6
20260501205648 9 145 3.2 4.8 0.00 0.13 0.13 46 1026.5
20260501205146 9 13 3.2 9.7 0.00 0.13 0.13 43 1026.8
20260501204643 8 328 1.6 1.6 0.00 0.13 0.13 45 1026.6
20260501204138 7 256 9.7 11.3 0.00 0.13 0.13 46 1026.5
20260501203635 8 247 6.4 9.7 0.00 0.13 0.13 43 1026.6
20260501203133 10 234 4.8 4.8 0.00 0.13 0.13 43 1026.2
20260501202630 9 146 4.8 4.8 0.00 0.13 0.13 40 1026.4
20260501202127 8 72 3.2 3.2 0.00 0.13 0.13 45 1026.9
20260501201624 8 294 0.0 1.6 0.00 0.13 0.13 43 1026.5
20260501201120 8 72 8.0 11.3 0.00 0.13 0.13 45 1026.6
20260501200617 8 92 1.6 3.2 0.00 0.13 0.13 45 1026.6
20260501200114 8 321 4.8 4.8 0.00 0.13 0.13 42 1026.6
20260501195606 10 263 4.8 4.8 0.00 0.13 0.13 42 1026.6
20260501195101 9 214 1.6 1.6 0.00 0.13 0.13 40 1026.9
20260501194557 8 176 3.2 3.2 0.00 0.13 0.13 47 1026.8
20260501194053 7 220 0.0 1.6 0.00 0.13 0.13 49 1026.8
20260501193551 6 3 3.2 3.2 0.00 0.13 0.13 52 1026.8
20260501193049 6 32 4.8 4.8 0.00 0.13 0.13 52 1026.6
20260501192545 7 286 0.0 0.0 0.00 0.13 0.13 52 1026.5
20260501192043 7 232 1.6 3.2 0.00 0.13 0.13 48 1026.6
20260501191540 8 201 4.8 4.8 0.00 0.13 0.13 46 1026.6